W9GWP Weather Reports


Display with metric or nautical units.
time (UTC)temp
F
wind
direction
speed
MPH
gust
MPH
rain 1hr
in
rain 24hr
in
rain mn
in
humidity
%
barometer
mb
20260507195718 49 50 2.0 3.0 0.02 0.01 0.01 71 1040.1
20260507194214 51 90 0.0 8.0 0.00 0.00 0.00 65 1040.0
20260507192710 51 122 3.0 4.0 0.00 0.00 0.00 65 1040.2
20260507191206 55 82 2.0 3.0 0.00 0.00 0.00 57 1040.2
20260507185705 53 227 7.0 18.0 0.00 0.00 0.00 64 1040.7
20260507184203 57 206 4.0 8.0 0.00 0.00 0.00 43 1040.3
20260507182659 56 195 2.0 11.0 0.00 0.00 0.00 46 1040.5
20260507181200 56 207 5.0 11.0 0.00 0.00 0.00 43 1040.6
20260507175655 55 233 8.0 12.0 0.00 0.00 0.00 44 1041.2
20260507174153 55 221 8.0 17.0 0.00 0.00 0.00 44 1041.3
20260507172649 55 185 2.0 9.0 0.00 0.00 0.00 43 1041.7
20260507171144 55 225 3.0 10.0 0.00 0.00 0.00 43 1041.7
20260507165639 55 157 4.0 5.0 0.00 0.00 0.00 43 1041.8
20260507164135 55 103 1.0 8.0 0.00 0.00 0.00 43 1042.1
20260507162631 56 346 1.0 6.0 0.00 0.00 0.00 43 1042.2
20260507161127 55 154 3.0 3.0 0.00 0.00 0.00 44 1042.4
20260507155627 52 209 2.0 4.0 0.00 0.00 0.00 43 1042.7
20260507154124 51 197 0.0 7.0 0.00 0.00 0.00 44 1043.1
20260507152619 51 170 2.0 12.0 0.00 0.00 0.00 46 1043.2
20260507151115 49 212 1.0 4.0 0.00 0.00 0.00 47 1043.3
20260507145609 49 219 2.0 3.0 0.00 0.00 0.00 50 1043.8
20260507144107 48 221 5.0 8.0 0.00 0.00 0.00 51 1044.2
20260507142607 46 229 4.0 7.0 0.00 0.00 0.00 53 1044.1
20260507141103 47 235 4.0 5.0 0.00 0.00 0.00 53 1044.5
20260507135559 46 282 0.0 8.0 0.00 0.00 0.00 53 1044.4
20260507134055 45 201 2.0 4.0 0.00 0.00 0.00 56 1044.4
20260507132551 44 223 6.0 6.0 0.00 0.00 0.00 60 1044.6
20260507131048 43 315 2.0 4.0 0.00 0.00 0.00 62 1044.6
20260507125547 43 174 3.0 5.0 0.00 0.00 0.00 65 1044.7
20260507124044 44 258 1.0 5.0 0.00 0.00 0.00 62 1044.5
20260507122545 42 209 4.0 4.0 0.00 0.00 0.00 66 1044.4
20260507121044 41 255 2.0 3.0 0.00 0.00 0.00 70 1044.5
20260507115539 39 154 1.0 2.0 0.00 0.00 0.00 73 1044.2
20260507114035 38 102 0.0 1.0 0.00 0.00 0.00 77 1044.1
20260507112532 35 180 0.0 3.0 0.00 0.00 0.00 82 1044.3
20260507111028 33 173 0.0 2.0 0.00 0.00 0.00 85 1044.3
20260507105525 32 157 0.0 2.0 0.00 0.00 0.00 87 1043.8
20260507104020 32 114 0.0 0.0 0.00 0.00 0.00 87 1043.7
20260507102516 32 168 0.0 0.0 0.00 0.00 0.00 88 1043.8
20260507101016 32 114 0.0 0.0 0.00 0.00 0.00 88 1043.8
20260507095514 31 98 0.0 0.0 0.00 0.00 0.00 88 1043.8
20260507094010 32 111 0.0 0.0 0.00 0.00 0.00 87 1044.1
20260507092508 32 111 0.0 0.0 0.00 0.00 0.00 87 1044.2
20260507091003 32 166 0.0 1.0 0.00 0.00 0.00 87 1044.2
20260507085459 33 126 0.0 0.0 0.00 0.00 0.00 86 1044.1
20260507083955 33 126 0.0 0.0 0.00 0.00 0.00 85 1044.0
20260507082450 33 165 0.0 1.0 0.00 0.00 0.00 84 1044.1
20260507080946 34 135 0.0 2.0 0.00 0.00 0.00 82 1044.2
20260507075446 34 154 0.0 1.0 0.00 0.00 0.00 81 1044.0
20260507073943 33 126 0.0 1.0 0.00 0.00 0.00 84 1044.2
20260507072439 34 106 0.0 0.0 0.00 0.00 0.00 83 1044.4
20260507070936 35 173 1.0 2.0 0.00 0.00 0.00 82 1044.5
20260507065433 35 180 0.0 0.0 0.00 0.00 0.00 80 1044.3
20260507063932 36 103 0.0 0.0 0.00 0.00 0.00 78 1044.7
20260507062429 37 145 1.0 2.0 0.00 0.00 0.00 75 1044.5
20260507060928 38 206 1.0 2.0 0.00 0.00 0.00 74 1044.4
20260507055428 37 144 0.0 2.0 0.00 0.00 0.00 76 1044.6
20260507053925 37 206 0.0 1.0 0.00 0.00 0.00 75 1044.7
20260507052423 38 249 0.0 0.0 0.00 0.00 0.00 73 1044.6
20260507050921 38 249 0.0 0.0 0.00 0.00 0.00 71 1044.7
20260507045416 39 249 0.0 0.0 0.00 0.00 0.00 69 1044.7
20260507043912 40 195 0.0 0.0 0.00 0.00 0.00 66 1044.8
20260507042413 41 228 2.0 3.0 0.00 0.00 0.00 62 1044.8
20260507040908 42 287 0.0 2.0 0.00 0.00 0.00 62 1044.4
20260507035407 43 270 0.0 2.0 0.00 0.00 0.00 59 1044.8
20260507033905 43 289 0.0 3.0 0.00 0.00 0.00 58 1044.6
20260507032402 44 235 0.0 3.0 0.00 0.00 0.00 57 1044.7
20260507030903 44 257 1.0 3.0 0.00 0.00 0.00 56 1044.7
20260507025400 45 283 4.0 6.0 0.00 0.00 0.00 54 1044.8
20260507023856 45 288 3.0 8.0 0.00 0.00 0.00 53 1044.6
20260507022353 46 270 0.0 4.0 0.00 0.00 0.00 53 1044.4
20260507020848 46 252 3.0 4.0 0.00 0.00 0.00 51 1044.2
20260507015346 46 297 2.0 5.0 0.00 0.00 0.00 51 1044.2
20260507013847 47 260 4.0 5.0 0.00 0.00 0.00 50 1044.0
20260507012343 47 237 6.0 11.0 0.00 0.00 0.00 49 1043.5
20260507010843 48 256 3.0 4.0 0.00 0.00 0.00 50 1043.7
20260507005339 48 297 5.0 8.0 0.00 0.00 0.00 49 1043.4
20260507003836 49 250 5.0 9.0 0.00 0.00 0.00 47 1043.3
20260507002335 50 251 6.0 16.0 0.00 0.00 0.00 47 1043.5
20260507000831 51 247 3.0 7.0 0.00 0.00 0.00 46 1043.1
20260506235326 51 237 2.0 11.0 0.00 0.00 0.00 47 1043.0
20260506233824 51 256 8.0 12.0 0.00 0.00 0.00 45 1042.8
20260506232324 52 255 6.0 6.0 0.00 0.00 0.00 46 1042.6
20260506230821 53 261 2.0 9.0 0.00 0.00 0.00 44 1042.8
20260506225318 52 250 4.0 9.0 0.00 0.00 0.00 44 1042.4
20260506223814 53 310 2.0 8.0 0.00 0.00 0.00 46 1042.6
20260506222313 52 270 5.0 10.0 0.00 0.00 0.00 44 1042.4
20260506220813 53 245 5.0 11.0 0.00 0.00 0.00 43 1042.1
20260506215312 53 226 7.0 15.0 0.00 0.00 0.00 43 1042.1
20260506213809 54 213 2.0 9.0 0.00 0.00 0.00 42 1042.0
20260506212306 54 246 6.0 13.0 0.00 0.00 0.00 41 1041.9
20260506210800 55 270 3.0 6.0 0.00 0.00 0.00 42 1041.8
20260506205255 55 278 3.0 12.0 0.00 0.00 0.00 43 1041.9
20260506203753 55 261 3.0 7.0 0.00 0.00 0.00 39 1041.9
20260506202250 54 291 4.0 7.0 0.00 0.00 0.00 41 1041.9
20260506200747 55 319 2.0 7.0 0.00 0.00 0.00 41 1042.3